Hourly Data Report for October 19, 2015

All times are specified in Local Standard Time (LST). Add 1 hour to adjust for Daylight Saving Time where and when it is observed.

WINNIPEG A CS
MANITOBA

49°55'00.000" N
97°14'58.000" W
238.70 m
502S001
71849
XWG

Download Data

Hourly Data (October 2015)
Hourly Data Report for October 19, 2015
Temp Definition
°C
Dew Point Temp Definition
°C
Rel Hum Definition
%
Wind Dir Definition
10's deg

Wind Spd Definition
km/h
Visibility Definition
km
Stn Press Definition
kPa
Hmdx Definition


Wind Chill Definition


Weather Definition


TIME
00:00 10.2 4.7 69 24 5   97.53     LegendNANA
01:00 6.8 3.5 79 27 9   97.56     LegendNANA
02:00 4.7 2.6 86 32 13   97.63     LegendNANA
03:00 5.2 3.1 86 33 13   97.72     LegendNANA
04:00 3.7 2.6 92 30 13   97.78     LegendNANA
05:00 3.4 2.1 91 29 14   97.84     LegendNANA
06:00 3.6 2.3 91 27 7   97.91     LegendNANA
07:00 1.4 0.5 94 29 11   97.96     LegendNANA
08:00 3.3 2.8 96 30 8   98.04     LegendNANA
09:00 9.5 5.7 77 34 9   98.11     LegendNANA
10:00 13.2 6.3 63 2 20   98.16     LegendNANA
11:00 14.9 6.5 57 3 16   98.24     LegendNANA
12:00 15.5 6.1 54 1 13   98.29     LegendNANA
13:00 17.0 4.3 43 33 15   98.29     LegendNANA
14:00 17.1 3.7 41 33 20   98.31     LegendNANA
15:00 16.7 3.3 41 35 20   98.35     LegendNANA
16:00 15.6 4.7 48 33 19   98.38     LegendNANA
17:00 13.0 4.9 58 33 11   98.40     LegendNANA
18:00 10.6 5.0 68 2 12   98.49     LegendNANA
19:00 8.9 5.2 77 3 18   98.58     LegendNANA
20:00 7.5 5.1 85 4 18   98.65     LegendNANA
21:00 6.2 4.3 88 4 12   98.71     LegendNANA
22:00 5.2 3.5 89 3 10   98.77     LegendNANA
23:00 4.9 2.2 83 4 16   98.77     LegendNANA

Notes on Data Quality.

Legend

  • E = Estimated
  • M = Missing
  • NA = Not Available
  • ‡ = Partner data that is not subject to review by the National Climate Archives
Date modified: